Volver al catálogo

COSMOS 2317

GLONASS

ActivoNavegaciónMEO
NORAD 23621·PAYLOAD·🇷🇺 Russia

Lanzado Jul 24, 1995 desde Baikonur Cosmodrome

Loading…

Próximos Pases (próximas 24 horas)

TLE

EnvejeciendoSource: Space-Track

Época: Aug 30, 2026, 07:45 UTC

1 23621U 95037B   26242.32354999  .00000054  00000-0  00000+0 0  9996
2 23621  65.4814 200.5598 0009281 172.0593   0.4782  2.13101663241832

Sigue COSMOS 2317 en tiempo real con AllMySat

Download on the App Store